NPLNS Weather Reports


Display with metric or nautical units.
time (UTC)temp
F
wind
direction
speed
MPH
gust
MPH
rain 1hr
in
rain 24hr
in
rain mn
in
humidity
%
barometer
mb
20210925221519 79 225 1.0 5.0 0.00 0.00 0.00 44 1011.0
20210925220518 79 203 1.0 5.0 0.00 0.00 0.00 45 1011.2
20210925215519 79 0.0 3.0 0.00 0.00 0.00 44 1011.3
20210925214520 78 158 1.0 5.0 0.00 0.00 0.00 45 1011.4
20210925213519 78 135 1.0 4.0 0.00 0.00 0.00 44 1011.4
20210925212519 78 0.0 6.0 0.00 0.00 0.00 46 1011.6
20210925211520 78 90 1.0 3.0 0.00 0.00 0.00 45 1011.8
20210925210519 77 0.0 6.0 0.00 0.00 0.00 48 1011.8
20210925205519 76 203 1.0 4.0 0.00 0.00 0.00 46 1012.0
20210925204519 76 113 2.0 6.0 0.00 0.00 0.00 46 1012.0
20210925203520 76 0.0 5.0 0.00 0.00 0.00 49 1012.0
20210925202518 76 135 2.0 9.0 0.00 0.00 0.00 47 1012.1
20210925201518 76 158 2.0 7.0 0.00 0.00 0.00 46 1012.3
20210925200519 76 158 2.0 6.0 0.00 0.00 0.00 45 1012.3
20210925195519 75 158 1.0 5.0 0.00 0.00 0.00 49 1012.2
20210925194519 75 180 1.0 5.0 0.00 0.00 0.00 52 1012.3
20210925193518 75 0.0 1.0 0.00 0.00 0.00 52 1012.4
20210925192518 74 0.0 4.0 0.00 0.00 0.00 53 1012.3
20210925191519 73 135 1.0 5.0 0.00 0.00 0.00 54 1012.3
20210925190519 72 0.0 4.0 0.00 0.00 0.00 55 1012.4
20210925185518 71 0.0 3.0 0.00 0.00 0.00 56 1012.5
20210925184518 71 0.0 7.0 0.00 0.00 0.00 56 1012.6
20210925183519 70 0.0 3.0 0.00 0.00 0.00 56 1012.6
20210925182518 70 0.0 0.0 0.00 0.00 0.00 56 1012.7
20210925181520 69 225 1.0 5.0 0.00 0.00 0.00 55 1012.6
20210925180519 69 0.0 0.0 0.00 0.00 0.00 56 1012.6
20210925175519 69 0.0 1.0 0.00 0.00 0.00 54 1012.7
20210925174519 68 0.0 0.0 0.00 0.00 0.00 53 1012.5
20210925173518 67 0.0 3.0 0.00 0.00 0.00 53 1012.5
20210925172518 67 0.0 0.0 0.00 0.00 0.00 54 1012.5
20210925171519 68 0.0 3.0 0.00 0.00 0.00 55 1012.6
20210925170519 67 0.0 0.0 0.00 0.00 0.00 51 1012.6
20210925165518 67 0.0 0.0 0.00 0.00 0.00 54 1012.4
20210925164520 66 0.0 0.0 0.00 0.00 0.00 54 1012.5
20210925163519 66 0.0 0.0 0.00 0.00 0.00 53 1012.5
20210925162518 66 0.0 0.0 0.00 0.00 0.00 54 1012.5
20210925161518 66 0.0 0.0 0.00 0.00 0.00 54 1012.4
20210925160519 65 0.0 0.0 0.00 0.00 0.00 51 1012.5
20210925155519 64 0.0 0.0 0.00 0.00 0.00 50 1012.5
20210925154519 63 0.0 1.0 0.00 0.00 0.00 47 1012.4
20210925153519 61 0.0 0.0 0.00 0.00 0.00 47 1012.3
20210925152518 61 0.0 0.0 0.00 0.00 0.00 43 1012.3
20210925151519 59 0.0 0.0 0.00 0.00 0.00 36 1012.2
20210925150518 58 0.0 0.0 0.00 0.00 0.00 36 1012.2
20210925145519 58 0.0 0.0 0.00 0.00 0.00 39 1012.0
20210925144519 57 0.0 0.0 0.00 0.00 0.00 38 1011.8
20210925143520 56 0.0 1.0 0.00 0.00 0.00 33 1011.8
20210925142519 57 0.0 0.0 0.00 0.00 0.00 30 1011.8
20210925141518 57 0.0 0.0 0.00 0.00 0.00 34 1012.0
20210925140519 56 0.0 0.0 0.00 0.00 0.00 31 1012.0
20210925135519 56 0.0 0.0 0.00 0.00 0.00 33 1011.9
20210925134519 57 0.0 2.0 0.00 0.00 0.00 39 1011.6
20210925133518 57 0.0 1.0 0.00 0.00 0.00 44 1011.7
20210925132519 57 0.0 0.0 0.00 0.00 0.00 45 1011.9
20210925131519 58 0.0 0.0 0.00 0.00 0.00 47 1011.8
20210925130518 58 0.0 0.0 0.00 0.00 0.00 45 1011.8
20210925125518 58 0.0 0.0 0.00 0.00 0.00 46 1011.6
20210925124519 58 0.0 0.0 0.00 0.00 0.00 49 1011.6
20210925123519 58 0.0 0.0 0.00 0.00 0.00 51 1011.4
20210925122519 58 0.0 4.0 0.00 0.00 0.00 50 1011.5
20210925121518 58 0.0 5.0 0.00 0.00 0.00 49 1011.5
20210925120519 58 0.0 0.0 0.00 0.00 0.00 47 1011.4
20210925115520 58 0.0 0.0 0.00 0.00 0.00 49 1011.4
20210925114519 59 0.0 0.0 0.00 0.00 0.00 52 1011.5
20210925113519 59 0.0 2.0 0.00 0.00 0.00 56 1011.4
20210925112519 59 0 2.0 5.0 0.00 0.00 0.00 57 1011.4
20210925111518 59 0.0 0.0 0.00 0.00 0.00 56 1011.4
20210925110518 60 0.0 2.0 0.00 0.00 0.00 57 1011.3
20210925105519 60 0.0 0.0 0.00 0.00 0.00 58 1011.3
20210925104519 60 0.0 0.0 0.00 0.00 0.00 58 1011.3
20210925103518 60 0.0 0.0 0.00 0.00 0.00 57 1011.3
20210925102518 60 0.0 0.0 0.00 0.00 0.00 58 1011.3
20210925101519 61 0.0 0.0 0.00 0.00 0.00 58 1011.3
20210925100518 61 0.0 3.0 0.00 0.00 0.00 58 1011.3
20210925095518 62 0.0 4.0 0.00 0.00 0.00 57 1011.3
20210925094519 61 0.0 0.0 0.00 0.00 0.00 58 1011.3
20210925093518 61 0.0 3.0 0.00 0.00 0.00 58 1011.2
20210925092518 61 0.0 0.0 0.00 0.00 0.00 58 1011.3
20210925091519 61 0.0 1.0 0.00 0.00 0.00 58 1011.4
20210925090518 61 0.0 0.0 0.00 0.00 0.00 58 1011.3
20210925085518 62 0.0 0.0 0.00 0.00 0.00 58 1011.3
20210925084518 61 0.0 2.0 0.00 0.00 0.00 58 1011.3
20210925083518 62 0.0 0.0 0.00 0.00 0.00 58 1011.3
20210925082518 62 0 2.0 5.0 0.00 0.00 0.00 57 1011.1
20210925081518 63 0.0 5.0 0.00 0.00 0.00 57 1011.1
20210925080519 63 0.0 5.0 0.00 0.00 0.00 57 1011.1
20210925075518 63 0.0 5.0 0.00 0.00 0.00 56 1011.2
20210925074518 64 0.0 2.0 0.00 0.00 0.00 56 1011.1
20210925073520 63 0.0 0.0 0.00 0.00 0.00 57 1011.2
20210925072518 63 0.0 0.0 0.00 0.00 0.00 56 1011.2
20210925071518 64 0.0 0.0 0.00 0.00 0.00 55 1011.2
20210925070520 65 23 1.0 7.0 0.00 0.00 0.00 55 1011.2
20210925065519 65 23 2.0 5.0 0.00 0.00 0.00 55 1011.1
20210925064519 65 0 1.0 7.0 0.00 0.00 0.00 55 1011.1
20210925063520 65 0.0 1.0 0.00 0.00 0.00 56 1010.9
20210925062519 65 0.0 5.0 0.00 0.00 0.00 56 1010.8
20210925061519 65 0.0 0.0 0.00 0.00 0.00 56 1010.8
20210925060519 65 0 1.0 5.0 0.00 0.00 0.00 56 1010.8
20210925055519 65 0 1.0 5.0 0.00 0.00 0.00 56 1010.8
20210925054521 65 23 1.0 4.0 0.00 0.00 0.00 56 1010.8
20210925053520 66 0.0 0.0 0.00 0.00 0.00 56 1010.8
20210925052519 66 0.0 2.0 0.00 0.00 0.00 55 1010.9
20210925051520 67 0.0 4.0 0.00 0.00 0.00 53 1010.8
20210925050518 67 0.0 2.0 0.00 0.00 0.00 53 1010.8
20210925045519 67 0.0 4.0 0.00 0.00 0.00 54 1010.7
20210925044520 66 0.0 0.0 0.00 0.00 0.00 56 1010.6
20210925043519 67 0.0 0.0 0.00 0.00 0.00 56 1010.6
20210925042520 67 0.0 3.0 0.00 0.00 0.00 55 1010.6
20210925041520 67 0.0 2.0 0.00 0.00 0.00 55 1010.5
20210925040519 67 0.0 0.0 0.00 0.00 0.00 55 1010.5
20210925035518 68 0.0 0.0 0.00 0.00 0.00 53 1010.5
20210925034519 68 0.0 3.0 0.00 0.00 0.00 53 1010.3
20210925033520 68 0.0 0.0 0.00 0.00 0.00 54 1010.2
20210925032519 69 0.0 0.0 0.00 0.00 0.00 52 1010.3
20210925031520 70 0.0 4.0 0.00 0.00 0.00 50 1010.2
20210925030519 70 23 1.0 4.0 0.00 0.00 0.00 50 1010.3
20210925025519 71 0.0 0.0 0.00 0.00 0.00 51 1010.3
20210925024519 72 0.0 3.0 0.00 0.00 0.00 47 1010.3
20210925023521 72 23 1.0 4.0 0.00 0.00 0.00 46 1010.4
20210925022519 74 23 2.0 5.0 0.00 0.00 0.00 43 1010.5
20210925021519 77 23 2.0 5.0 0.00 0.00 0.00 37 1010.4
20210925020519 79 0.0 0.0 0.00 0.00 0.00 33 1010.5
20210925015519 80 0.0 0.0 0.00 0.00 0.00 32 1010.5
20210925014519 80 0.0 0.0 0.00 0.00 0.00 32 1010.4
20210925013519 82 0.0 0.0 0.00 0.00 0.00 33 1010.4
20210925012518 83 0.0 0.0 0.00 0.00 0.00 31 1010.6
20210925011519 84 0.0 0.0 0.00 0.00 0.00 29 1010.6
20210925010519 85 0.0 0.0 0.00 0.00 0.00 29 1010.8
20210925005519 85 0.0 0.0 0.00 0.00 0.00 27 1010.9
20210925004519 86 0.0 0.0 0.00 0.00 0.00 28 1011.0
20210925003519 86 0.0 1.0 0.00 0.00 0.00 27 1011.0
20210925002520 86 0.0 0.0 0.00 0.00 0.00 26 1011.1
20210925001518 86 0.0 3.0 0.00 0.00 0.00 27 1011.2
20210925000519 86 0.0 2.0 0.00 0.00 0.00 26 1011.4
20210924235521 87 0.0 2.0 0.00 0.00 0.00 26 1011.6
20210924234519 87 0.0 4.0 0.00 0.00 0.00 27 1011.5
20210924233529 86 0.0 4.0 0.00 0.00 0.00 27 1011.5
20210924232519 86 90 3.0 10.0 0.00 0.00 0.00 27 1011.6
20210924231519 86 90 2.0 7.0 0.00 0.00 0.00 27 1011.7
20210924230518 86 68 1.0 9.0 0.00 0.00 0.00 27 1011.8
20210924225519 86 68 6.0 12.0 0.00 0.00 0.00 28 1012.0
20210924224518 86 68 5.0 11.0 0.00 0.00 0.00 28 1012.1
20210924223518 86 68 7.0 11.0 0.00 0.00 0.00 27 1012.2
20210924222518 86 90 6.0 11.0 0.00 0.00 0.00 26 1012.4